Location: Newark
(40.7066°N, 111.8219°W)
Time: 10:09:24
(UTC+00:00)

Transit 2A Rocket - Pass Details

Date: 29 November 2019
Orbit: 594 x 909 km, 66.7° (Epoch: 12 December)

Event Time Altitude Azimuth Distance (km) Brightness Sun altitude
Rises 12:38:21 0° 314° (NW) 2,881 - -20.7°
Reaches altitude 10° 12:41:01 10° 298° (WNW) 2,004 - -20.2°
Maximum altitude 12:44:18 20° 250° (WSW) 1,487 - -19.5°
Exits shadow 12:46:08 16° 221° (SW) 1,696 6.5 -19.2°
Drops below altitude 10° 12:47:45 10° 204° (SSW) 2,106 7.2 -18.9°
Sets 12:50:39 0° 188° (S) 3,077 8.2 -18.4°
